Simultaneous Nadir Overpasses (SNOs) Predictions

Prediction of SNOs between LANDSAT-8 and METOP-B Satellite Orbit:

Table of predicted SNOs for the next 14.0 days since TLE Epoch: 1/13/2024
Index Date (LANDSAT-8) Time (LANDSAT-8) Lat,Lon (LANDSAT-8) SZA (LANDSAT-8 ) Date (METOP-B) Time (METOP-B) Lat,Lon (METOP-B) SZA (METOP-B ) Distance(km) Time Diff (sec)
1 01/15/2024 19:34:31 81.28, -71.31 104.29 01/15/2024 19:34:15 81.28, -71.14 104.31 2.78 16
2 01/15/2024 20:23:57 -81.30, 96.67 75.67 01/15/2024 20:24:55 -81.29, 96.53 75.67 2.45 58
3 01/18/2024 14:19:52 -80.41, 176.25 77.96 01/18/2024 14:18:38 -80.74, 175.12 77.77 41.98 74
4 01/18/2024 15:08:45 81.29, -4.69 103.75 01/18/2024 15:08:44 81.28, -4.78 103.74 1.65 1
5 01/18/2024 15:58:12 -81.29, 162.93 76.26 01/18/2024 15:59:24 -81.29, 162.93 76.23 0.42 72
6 01/21/2024 09:53:33 -81.26,-106.37 76.93 01/21/2024 09:52:33 -81.27,-106.49 76.96 2.01 60
7 01/21/2024 10:42:58 81.28, 61.66 103.13 01/21/2024 10:43:12 81.28, 61.48 103.11 2.96 14
8 01/24/2024 05:27:45 -81.29, -39.52 77.53 01/24/2024 05:27:00 -81.28, -39.53 77.55 0.58 45
9 01/24/2024 06:17:11 81.29, 128.11 102.47 01/24/2024 06:17:40 81.29, 128.03 102.47 1.36 29
10 01/27/2024 01:01:58 -81.27, 26.67 78.27 01/27/2024 01:01:29 -81.27, 26.56 78.29 1.92 29



Historial Predications of SNOs between LANDSAT-8 and METOP-B
